Location: Unspecified
(0.0000°N, 0.0000°E)
Time: 03:29:23
(UTC+00:00)

Hubble Space Telescope - Pass Details

Date: 14 November 2019
Orbit: 536 x 540 km, 28.5° (Epoch: 10 November)

Event Time Altitude Azimuth Distance (km) Brightness Sun altitude
Rises 18:51:00 0° 281° (W) 2,669 5.4 -15.8°
Reaches altitude 10° 18:55:18 10° 324° (NW) 1,777 3.6 -16.8°
Maximum altitude 18:56:00 10° 333° (NNW) 1,755 3.5 -17.0°
Drops below altitude 10° 18:56:41 10° 343° (NNW) 1,776 3.4 -17.1°
Enters shadow 18:58:11 - 2° (N) 1,963 3.4 -17.5°
